Home > Weather > Georgetown > Past weeks

Flag for Guyana Weather for the Past 2 Weeks in Georgetown, Guyana

Now
77 °F

Heavy rain. Mostly cloudy.


Feels Like: 78 °F
Forecast: 78 / 84 °F
Wind: 7 mph from Northeast

Location: Georgetown/Cheddi Jagan International Airport

Current Time: Apr 28, 2016 at 11:06:41 PM

Latest Report: Apr 28, 2016 at 10:00 PM


Visibility: 4 mi

Pressure: 29.92 "Hg

Humidity: 94%

Dew Point: 75 °F

Location of GeorgetownLocation

Historic Weather in Georgetown — Graph

°F

Georgetown Temperature Yesterday

Maximum temperature yesterday: 86 °F (at 2:00 PM)
Minimum temperature yesterday: 75 °F (at 8:00 AM)
Average temperature yesterday: 80 °F

High & Low Weather Summary for the Past Weeks

 TemperatureHumidityPressure
High91 °F (Apr 14, 1:00 PM)100% (Apr 14, 12:00 AM)29.95 "Hg (Apr 14, 12:00 AM)
Low72 °F (Apr 13, 9:00 PM)24% (Apr 14, 8:00 AM)29.74 "Hg (Apr 25, 4:00 PM)
Average80 °F86%29.86 "Hg
* Reported Apr 13 9:00 PM — Apr 28 9:00 PM, Georgetown, Weather by CustomWeather, © 2016

Note: Actual official high and low records may vary slightly from our data, if they occured in-between our weather recording intervals... More about our weather records

Advertising

Georgetown Weather History for the Previous 24 Hours

Scroll right to see more
 ConditionsComfort  
Time TempWeatherWind HumidityBarometerVisibility
9:00 PM
Thu, Apr 28
77 °FHeavy rain. Passing clouds.7 mph94%29.92 "Hg4 mi
8:00 PM77 °FLots of rain. Passing clouds.16 mph100%29.92 "Hg5 mi
7:00 PM79 °FPassing clouds.5 mph94%29.89 "HgN/A
6:00 PM79 °FLight rain. Mostly cloudy.5 mph94%29.86 "HgN/A
5:00 PM79 °FRain showers. Partly sunny.2 mph94%29.83 "Hg5 mi
4:00 PM79 °FPartly sunny.2 mph89%29.83 "HgN/A
3:00 PM79 °FSprinkles. Partly sunny.2 mph89%29.80 "Hg6 mi
2:00 PM79 °FSprinkles. Partly sunny.5 mph89%29.83 "Hg6 mi
1:00 PM77 °FRain showers. Partly sunny.12 mph94%29.86 "Hg5 mi
12:00 PM84 °FSprinkles. Partly sunny.9 mph79%29.89 "HgN/A
11:00 AM82 °FPartly sunny.7 mph84%29.89 "HgN/A
10:00 AM81 °FPartly sunny.9 mph89%29.92 "Hg6 mi
9:00 AM79 °FMostly cloudy.2 mph100%29.92 "Hg6 mi
8:00 AM77 °FLight rain. Mostly cloudy.No wind94%29.89 "Hg5 mi
7:00 AM77 °FLight rain. Mostly cloudy.5 mph94%29.89 "Hg6 mi
6:00 AM77 °FSprinkles. Partly sunny.7 mph94%29.86 "HgN/A
5:00 AM77 °FSprinkles. Passing clouds.7 mph94%29.83 "HgN/A
4:00 AM77 °FPassing clouds.7 mph94%29.83 "HgN/A
3:00 AM79 °FSprinkles. Passing clouds.5 mph89%29.83 "Hg6 mi
2:00 AM79 °FSprinkles. Partly cloudy.5 mph89%29.83 "Hg6 mi
1:00 AM79 °FSprinkles. Partly cloudy.9 mph94%29.83 "Hg6 mi
12:00 AM79 °FPartly cloudy.No wind94%29.86 "HgN/A
11:00 PM
Wed, Apr 27
79 °FPartly cloudy.5 mph94%29.86 "HgN/A
Weather by CustomWeather, © 2016

See weather overviewHow to use our weather pages